Regional Weather Roundup
Issued by NWS

Home | Current Version | Previous Version | Graphics & Text | Print | Product List | Glossary On
Versions: 1 2 3 4 5 6 7 8 9 10 11 12 13 14 15 16 17 18 19 20 21 22 23 24 25 26 27 28 29 30 31 32 33 34 35 36 37 38 39 40 41 42 43 44 45 46 47 48 49
000
ASUS43 KDMX 011107
RWRIA

WEATHER ROUNDUP FOR IOWA
NATIONAL WEATHER SERVICE DES MOINES IA
600 AM CDT WED OCT 01 2014

NOTE: "FAIR" INDICATES FEW OR NO CLOUDS BELOW 12,000 FEET WITH NO
SIGNIFICANT WEATHER AND/OR OBSTRUCTIONS TO VISIBILITY.

* - THESE STATIONS ARE NOT NWS STATIONS...THUS NOT UNDER NWS
QUALITY CONTROL.  THEY ALSO DO NOT REPORT WEATHER SUCH
AS PRECIPITATION OR FOG.

IAZ001>003-012>014-020>022-031>034-043>046-011200-
   NORTHWEST IOWA

CITY           SKY/WX    TMP DP  RH WIND       PRES   REMARKS
CARROLL *      CLOUDY    61  61 100 E14       29.69F FOG
CHEROKEE *     CLOUDY    61  61 100 S3        29.73R
DENISON *      CLOUDY    61  61 100 E7        29.69R
LE MARS *        N/A     57  57 100 CALM      29.74R FOG
ORANGE CITY *  PTCLDY    59  57  94 CALM      29.74S FOG
SHELDON *      CLOUDY    57  57 100 SE6       29.74R FOG
SIOUX CITY     CLOUDY    59  58  96 CALM      29.73R FOG
SPENCER        CLOUDY    59  57  93 SE5       29.75S
STORM LAKE *   CLOUDY    59  59 100 SE12G18   29.74S FOG
$$

IAZ055>058-069>071-079>083-090>094-011200-
   SOUTHWEST IOWA

CITY           SKY/WX    TMP DP  RH WIND       PRES   REMARKS
ATLANTIC *     LGT RAIN  64  63  94 S9        29.69S
AUDUBON *      MOCLDY    63  57  82 SE10G22   29.70F
CLARINDA *     DRIZZLE   63  63 100 VRB5      29.75S
COUNCIL BLFS * LGT RAIN  61  61 100 SE6       29.72R
CRESTON *      CLOUDY    63  63 100 SE14G21   29.77S
HARLAN  *      LGT RAIN  63  63 100 SW5       29.75R
LAMONI         RAIN      63  61  93 S6        29.82S FOG
RED OAK *      CLOUDY    63  63 100 S6        29.72S
SHENANDOAH *   CLOUDY    63  61  94 SE8       29.73S
$$

IAZ047>049-059>061-072>074-084-011200-
   CENTRAL IOWA

CITY           SKY/WX    TMP DP  RH WIND       PRES   REMARKS
AMES           RAIN      55  55 100 SE10      29.81S FOG
ANKENY *       LGT RAIN  57  55  94 E10       29.82R
CHARITON *     CLOUDY    61  57  88 SE7       29.83R
DES MOINES     HVY RAIN  60  57  89 E10       29.80F FOG
GRINNELL*      LGT RAIN  54  50  87 E9        29.86R
KNOXVILLE *    CLOUDY    59  54  82 SE10G17   29.81R
MARSHALLTOWN   CLOUDY    54  50  86 SE7       29.85F
PELLA *        CLOUDY    55  54  94 SE9G17    29.84S
PERRY *        HVY RAIN  59  59 100 SE9       29.77F
$$

IAZ004>006-015-016-023>025-035-036-011200-
   NORTH CENTRAL IOWA

CITY           SKY/WX    TMP DP  RH WIND       PRES   REMARKS
ALGONA *       CLOUDY    54  54 100 SE16      29.78F FOG
CLARION *      CLOUDY    54  54 100 SE13G23   29.81F
ESTHERVILLE    LGT RAIN  54  54 100 SE14      29.76F
FORT DODGE *   CLOUDY    55  52  88 E13       29.77F
MASON CITY     RAIN      50  50 100 SE13      29.86S FOG
FOREST CITY *  LGT RAIN  52  52 100 SE13G22   29.83S
IOWA FALLS *   RAIN      52  52 100 E10       29.85S
$$

IAZ007>011-017>019-026>030-037>042-050>054-066-011200-
   NORTHEAST IOWA

CITY           SKY/WX    TMP DP  RH WIND       PRES   REMARKS
CEDAR RAPIDS   CLOUDY    52  48  87 SE10      29.89R
CHARLES CITY * CLOUDY    52  46  82 SE10G16   29.89F
CLINTON *      CLEAR     48  45  87 SE10      29.96F
DECORAH *      CLOUDY    48  46  93 SE10      29.90F
MONTICELLO *   CLOUDY    52  48  87 SE10G16   29.92R
OELWEIN *      CLOUDY    52  48  87 SE15      29.89S
WATERLOO       CLOUDY    52  47  83 SE12      29.88R
$$

IAZ064-065-067-068-078-011200-
   EAST CENTRAL IOWA

CITY           SKY/WX    TMP DP  RH WIND       PRES   REMARKS
IOWA CITY      CLOUDY    53  49  86 SE10      29.91S
MT. PLEASANT * PTCLDY    54  48  82 SE10      29.89F
MUSCATINE *    PTCLDY    54  48  82 SE8       29.92R
$$

IAZ062-063-075>077-085>089-095>099-011200-
   SOUTHEAST IOWA

CITY           SKY/WX    TMP DP  RH WIND       PRES   REMARKS
BURLINGTON     PTCLDY    53  49  86 SE7       29.90S
FAIRFIELD *    CLOUDY    54  50  87 SE12      29.87S
FORT MADISON * CLEAR     55  50  82 SE8       29.90S HAZE
KEOKUK *       CLEAR     55  52  88 SE12      29.88S
OSKALOOSA *      N/A     55  52  88 SE9       29.86R
CENTERVILLE *  MOCLDY    59  59 100 E6        29.85R
OTTUMWA        MOCLDY    54  50  86 SE10      29.85S
WASHINGTON *   PTCLDY    54  50  87 SE10      29.88F
$$

ABBREVIATIONS USED IN REMARKS
   TC - TEMPERATURES IN CELSIUS
  WCI - WIND CHILL INDEX
   HX - HEAT INDEX
  VSB - VISIBILITY
$$



USA.gov is the U.S. government's official web portal to all federal, state and local government web resources and services.